TimeEDT,TemperatureF,Dew PointF,Humidity,Sea Level PressureIn,VisibilityMPH,Wind Direction,Wind SpeedMPH,Gust SpeedMPH,PrecipitationIn,Events,Conditions,WindDirDegrees,DateUTC
12:15 AM,73.4,69.8,88,30.04,10.0,Calm,Calm,-,N/A,,Clear,0,2013-09-17 04:15:00
12:35 AM,73.4,69.8,88,30.04,10.0,Calm,Calm,-,N/A,,Clear,0,2013-09-17 04:35:00
12:55 AM,73.4,69.8,88,30.04,10.0,ENE,4.6,-,N/A,,Clear,70,2013-09-17 04:55:00
1:15 AM,73.4,69.8,88,30.03,10.0,ENE,5.8,-,N/A,,Clear,60,2013-09-17 05:15:00
1:35 AM,73.4,69.8,88,30.03,10.0,East,5.8,-,N/A,,Clear,80,2013-09-17 05:35:00
1:55 AM,73.4,69.8,88,30.03,10.0,ENE,4.6,-,N/A,,Clear,70,2013-09-17 05:55:00
2:15 AM,73.4,69.8,88,30.03,10.0,ENE,4.6,-,N/A,,Clear,70,2013-09-17 06:15:00
2:35 AM,73.4,69.8,88,30.02,10.0,East,3.5,-,N/A,,Clear,80,2013-09-17 06:35:00
2:55 AM,73.4,71.6,94,30.02,10.0,NNE,4.6,-,N/A,,Clear,30,2013-09-17 06:55:00
3:15 AM,73.4,71.6,94,30.02,10.0,NE,3.5,-,N/A,,Clear,40,2013-09-17 07:15:00
3:35 AM,73.4,71.6,94,30.01,10.0,NNE,4.6,-,N/A,,Clear,30,2013-09-17 07:35:00
3:55 AM,73.4,71.6,94,30.01,10.0,NNE,4.6,-,N/A,,Clear,30,2013-09-17 07:55:00
4:15 AM,71.6,69.8,94,30.01,10.0,NNE,3.5,-,N/A,,Clear,20,2013-09-17 08:15:00
4:35 AM,71.6,69.8,94,30.02,10.0,North,4.6,-,N/A,,Clear,10,2013-09-17 08:35:00
4:55 AM,71.6,69.8,94,30.02,10.0,North,4.6,-,N/A,,Clear,360,2013-09-17 08:55:00
5:15 AM,71.6,69.8,94,30.02,10.0,North,4.6,-,N/A,,Clear,10,2013-09-17 09:15:00
5:35 AM,71.6,69.8,94,30.02,10.0,North,5.8,-,N/A,,Clear,360,2013-09-17 09:35:00
5:55 AM,71.6,69.8,94,30.02,10.0,North,4.6,-,N/A,,Clear,10,2013-09-17 09:55:00
5:56 AM,71.6,71.6,100,30.02,10.0,NNE,4.6,-,N/A,,Scattered Clouds,20,2013-09-17 09:56:00
6:15 AM,71.6,69.8,94,30.03,10.0,NNE,4.6,-,N/A,,Clear,30,2013-09-17 10:15:00
6:35 AM,71.6,69.8,94,30.03,10.0,NNE,5.8,-,N/A,,Clear,30,2013-09-17 10:35:00
6:52 AM,71.6,71.6,100,30.04,10.0,NE,4.6,-,N/A,,Partly Cloudy,50,2013-09-17 10:52:00
7:50 AM,73.4,71.6,94,30.04,15.0,NNE,3.5,-,N/A,,Partly Cloudy,30,2013-09-17 11:50:00
8:50 AM,78.8,73.4,83,30.06,15.0,ENE,8.1,-,N/A,,Partly Cloudy,70,2013-09-17 12:50:00
9:50 AM,82.4,71.6,70,30.07,15.0,East,8.1,-,N/A,,Mostly Cloudy,80,2013-09-17 13:50:00
10:50 AM,84.2,69.8,62,30.07,15.0,ENE,12.7,-,N/A,,Scattered Clouds,70,2013-09-17 14:50:00
11:54 AM,86.0,69.8,58,30.07,20.0,ENE,10.4,-,N/A,,Mostly Cloudy,60,2013-09-17 15:54:00
12:50 PM,87.8,69.8,55,30.05,20.0,NE,9.2,-,N/A,,Mostly Cloudy,40,2013-09-17 16:50:00
1:50 PM,89.6,66.2,46,30.02,20.0,ENE,9.2,13.8,N/A,,Mostly Cloudy,70,2013-09-17 17:50:00
2:50 PM,80.6,69.8,70,30.01,20.0,ESE,6.9,-,N/A,,Mostly Cloudy,120,2013-09-17 18:50:00
3:50 PM,87.8,69.8,55,29.98,20.0,East,9.2,-,N/A,,Mostly Cloudy,100,2013-09-17 19:50:00
4:50 PM,87.8,69.8,55,29.97,20.0,East,13.8,19.6,N/A,,Mostly Cloudy,100,2013-09-17 20:50:00
5:50 PM,82.4,71.6,70,29.98,20.0,NE,16.1,23.0,N/A,,Overcast,40,2013-09-17 21:50:00
6:50 PM,77.0,69.8,78,30.00,20.0,ESE,9.2,-,N/A,,Mostly Cloudy,120,2013-09-17 22:50:00
7:50 PM,75.2,71.6,89,30.01,10.0,East,9.2,-,N/A,Rain,Light Rain,100,2013-09-17 23:50:00
8:50 PM,75.2,73.4,94,29.99,10.0,East,4.6,-,N/A,,Mostly Cloudy,80,2013-09-18 00:50:00
9:50 PM,75.2,73.4,94,30.01,10.0,ENE,3.5,-,N/A,,Scattered Clouds,60,2013-09-18 01:50:00
10:55 PM,73.4,71.6,94,30.02,10.0,East,5.8,-,N/A,,Clear,80,2013-09-18 02:55:00
11:15 PM,73.4,71.6,94,30.02,10.0,ENE,5.8,-,N/A,,Clear,70,2013-09-18 03:15:00
11:35 PM,73.4,71.6,94,30.03,10.0,NE,4.6,-,N/A,,Clear,40,2013-09-18 03:35:00
11:55 PM,73.4,71.6,94,30.03,10.0,NE,3.5,-,N/A,,Clear,50,2013-09-18 03:55:00